Location: Kinloch
(38.7406°N, 90.3254°W)
Time: 15:24:48
(UTC+00:00)

BREEZE-M DEB (TANK) - Pass Details

Date: 13 February 2026
Orbit: 305 x 16065 km, 49.4° (Epoch: 8 March)

Event Time Altitude Azimuth Distance (km) Brightness Sun altitude
Rises 12:18:10 0° 218° (SW) 2,022 5.4 -7.7°
Reaches altitude 10° 12:19:35 10° 210° (SSW) 1,315 4.6 -7.5°
Maximum altitude 12:21:57 47° 133° (SE) 662 3.7 -7.0°
Drops below altitude 10° 12:27:18 10° 60° (ENE) 2,972 7.3 -6.0°
Sets 12:32:22 0° 56° (NE) 5,364 8.5 -5.0°
